Overview Statistics Trail Chart Weather Telemetry Raw packets
 

This is the latest recevied weather packets stored in our database for station/object KF0WJA. If no packets are shown the sender has not sent any weather packets the latest 10 day(s).

<< 13 14 15 16 17 18 19 >>
Time Temp. Humidity Pressure Rain* Wind** Luminosity Snow
1788568201 33.89° C 49% 1014.2 hPa 0 mm - 19 W/m² -
1788567896 33.89° C 49% 1014.3 hPa 0 mm - 26 W/m² -
1788567596 34.44° C 48% 1014.2 hPa 0 mm - 31 W/m² -
1788567290 34.44° C 48% 1014.3 hPa 0 mm - 41 W/m² -
1788566985 34.44° C 47% 1014.1 hPa 0 mm - 48 W/m² -
1788566681 35° C 47% 1013.9 hPa 0 mm - 62 W/m² -
1788566376 35° C 47% 1014.4 hPa 0 mm - 69 W/m² -
1788566072 35° C 47% 1014.3 hPa 0 mm - 84 W/m² -
1788565766 35° C 46% 1014.3 hPa 0 mm - 97 W/m² -
1788565466 35.56° C 46% 1014.3 hPa 0 mm - 116 W/m² -
1788565162 35.56° C 45% 1014.2 hPa 0 mm - 132 W/m² -
1788564857 35.56° C 45% 1014.1 hPa 0 mm - 152 W/m² -
1788564553 35.56° C 45% 1014.2 hPa 0 mm - 163 W/m² -
1788564250 35.56° C 45% 1014.1 hPa 0 mm - 186 W/m² -
1788563946 35.56° C 45% 1014.1 hPa 0 mm - 186 W/m² -
1788563641 35.56° C 45% 1014.2 hPa 0 mm - 208 W/m² -
1788563336 36.11° C 45% 1014.2 hPa 0 mm - 246 W/m² -
1788563034 36.67° C 44% 1014.4 hPa 0 mm - 246 W/m² -
1788562729 36.67° C 43% 1013.9 hPa 0 mm - 264 W/m² -
1788562428 36.67° C 43% 1013.9 hPa 0 mm - 277 W/m² -
1788562128 36.11° C 45% 1013.9 hPa 0 mm - 311 W/m² -
1788561823 36.11° C 44% 1014.2 hPa 0 mm - 316 W/m² -
1788561523 36.67° C 44% 1014.1 hPa 0 mm - 327 W/m² -
1788561222 36.11° C 44% 1014.1 hPa 0 mm - 356 W/m² -
1788560919 36.67° C 43% 1013.9 hPa 0 mm - 395 W/m² -

* Rain latest hour (hover to see other rain measurements)
** Current wind speed in m/s (hover to see current wind gust speed)